Home   Weather   Luhansk   Past weeks

Flag for Ukraine Past Weather in Luhansk, Ukraine — Yesterday and Last 2 Weeks

39 °F


Feels Like: 29 °F
Forecast: 24 / 40 °F
Wind: 22 mph from East

Location: Rostov-Na-Donu

Current Time: Oct 25, 2016 at 4:46:58 PM

Latest Report: Oct 25, 2016 at 4:00 PM

Visibility: 10 mi

Pressure: 30.69 "Hg

Humidity: 42%

Dew Point: 18 °F

Location of LuhanskLocation

Past Weather in Luhansk — Graph


Luhansk Temperature Yesterday

Maximum temperature yesterday: 50 °F (at 12:30 PM)
Minimum temperature yesterday: 34 °F (at 11:00 PM)
Average temperature yesterday: 41 °F

High & Low Weather Summary for the Past Weeks

High61 °F (Oct 11, 2:00 PM)100% (Oct 14, 4:00 AM)30.74 "Hg (Oct 14, 4:00 AM)
Low27 °F (Oct 25, 5:00 AM)36% (Oct 11, 1:30 PM)29.89 "Hg (Oct 14, 3:30 AM)
Average41 °F68%30.36 "Hg
* Reported Oct 10 3:00 PM — Oct 25 3:30 PM, Luhansk, Weather by CustomWeather, © 2016

Note: Actual official high and low records may vary slightly from our data, if they occured in-between our weather recording intervals... More about our weather records


Luhansk Weather History for the Previous 24 Hours

Scroll right to see more
Time TempWeatherWind HumidityBarometerVisibility
3:30 PM
Tue, Oct 25
39 °FSunny.24 mph42%30.69 "Hg10 mi
3:00 PM39 °FSunny.24 mph42%30.69 "Hg10 mi
2:30 PM41 °FSunny.22 mph39%30.72 "Hg10 mi
2:00 PM39 °FSunny.24 mph45%30.72 "Hg10 mi
1:30 PM39 °FSunny.24 mph45%30.72 "Hg10 mi
1:00 PM39 °FSunny.24 mph45%30.72 "Hg10 mi
12:00 PM37 °FSunny.24 mph45%30.74 "Hg10 mi
11:30 AM37 °FSunny.24 mph45%30.74 "Hg10 mi
11:00 AM36 °FSunny.24 mph48%30.74 "Hg10 mi
10:30 AM34 °FSunny.26 mph48%30.74 "Hg10 mi
10:00 AM34 °FSunny.22 mph48%30.74 "Hg10 mi
9:30 AM32 °FSunny.22 mph51%30.74 "Hg10 mi
9:00 AM30 °FSunny.20 mph59%30.74 "Hg10 mi
8:30 AM28 °FSunny.20 mph59%30.74 "Hg10 mi
8:00 AM27 °FSunny.20 mph64%30.74 "Hg10 mi
7:00 AM27 °FSunny.22 mph64%30.72 "Hg10 mi
6:30 AM27 °FClear.20 mph64%30.72 "Hg5 mi
6:00 AM27 °FClear.20 mph64%30.72 "Hg5 mi
5:30 AM27 °FClear.22 mph64%30.72 "Hg5 mi
5:00 AM27 °FClear.20 mph64%30.72 "Hg5 mi
4:30 AM28 °FClear.17 mph59%30.72 "Hg5 mi
4:00 AM28 °FClear.17 mph64%30.72 "Hg5 mi
3:30 AM28 °FClear.17 mph64%30.72 "Hg5 mi
3:00 AM28 °FClear.17 mph64%30.72 "Hg5 mi
2:30 AM30 °FClear.13 mph55%30.72 "Hg5 mi
2:00 AM30 °FClear.15 mph55%30.72 "Hg5 mi
1:30 AM32 °FClear.20 mph51%30.72 "Hg5 mi
1:00 AM32 °FClear.17 mph51%30.72 "Hg5 mi
12:30 AM32 °FClear.20 mph51%30.72 "Hg5 mi
12:00 AM34 °FClear.20 mph48%30.69 "Hg5 mi
11:30 PM
Mon, Oct 24
34 °FClear.20 mph51%30.69 "Hg5 mi
11:00 PM34 °FClear.20 mph51%30.69 "Hg5 mi
10:30 PM36 °FClear.20 mph48%30.69 "Hg5 mi
10:00 PM36 °FClear.20 mph48%30.69 "Hg5 mi
9:30 PM36 °FClear.20 mph48%30.69 "Hg5 mi
9:00 PM37 °FClear.22 mph45%30.69 "Hg5 mi
8:30 PM39 °FClear.22 mph45%30.69 "Hg5 mi
8:00 PM39 °FClear.20 mph45%30.66 "Hg5 mi
7:30 PM39 °FClear.20 mph48%30.66 "Hg5 mi
7:00 PM41 °FClear.22 mph49%30.66 "Hg5 mi
6:30 PM41 °FClear.20 mph49%30.66 "Hg5 mi
6:00 PM43 °FPassing clouds.20 mph49%30.66 "Hg5 mi
5:30 PM43 °FPassing clouds.13 mph49%30.63 "Hg5 mi
5:00 PM45 °FPassing clouds.17 mph46%30.63 "HgN/A
4:30 PM46 °FPassing clouds.26 mph43%30.63 "HgN/A
4:00 PM46 °FPassing clouds.24 mph43%30.60 "HgN/A
Weather by CustomWeather, © 2016

See weather overviewHow to use our weather pages